Tracking 20083 objects as of 11-Dec-2019
HD Live streaming from Space Station
objects crossing your sky now

COSMOS 1579

Track COSMOS 1579 now!
10-day predictions
COSMOS 1579 is classified as:


NORAD ID: 15085
Int'l Code: 1984-069A
Perigee: 923.0 km
Apogee: 976.3 km
Inclination: 65.0 °
Period: 103.9 minutes
Semi major axis: 7320 km
RCS: 2.625 m2 (large)
Launch date: June 29, 1984
Source: Commonwealth of Independent States (former USSR) (CIS)
Launch site: TYURATAM MISSILE AND SPACE COMPLEX (TTMTR)
aabbcc
Your satellite tracking list
Your tracking list is empty




NASA's NSSDC Master Catalog

Two Line Element Set (TLE):
1 15085U 84069A   19344.80669561 -.00000095  00000-0 -55394-5 0  9995
2 15085  65.0493 138.5074 0036406 143.1317 217.2258 13.86059301796101
Source of the keplerian elements: AFSPC